User: anonymous   Login
Location: Albany
(35.0000°S, 118.0000°E)
Time: 08:00:47
(UTC-05:00)
Language:

Cosmos 2227 Rocket - Orbit

View from above orbital plane
View from above orbital plane
View from above satellite
View from above satellite

Ground track
Ground track

The orbit data is extracted from the following two-line orbital elements,

1 22285U 92093B   16041.50850340  .00000132  00000-0  92707-4 0  9994
2 22285  71.0223 165.7846 0003996 190.9310 169.1726 14.14991643192841
Epoch (UTC): 10 February 2016 12:12:14
Eccentricity: 0.0003996
inclination: 71.0223°
perigee height: 839 km
apogee height: 845 km
right ascension of ascending node: 165.7846°
argument of perigee: 190.9310°
revolutions per day: 14.14991643
mean anomaly at epoch: 169.1726°
orbit number at epoch: 19284

The dashed part of the orbit path shows where the satellite is in the earth's shadow,  

DLR